Location: Asheville, NC
(35.6000°N, 82.5500°W)
Time: 23:25:30
(UTC-04:00)

Vanguard 1 Rocket - Pass Details

Date: 13 December 2017
Orbit: 653 x 4224 km, 34.3° (Epoch: 17 June)

Event Time Altitude Azimuth Distance (km) Brightness Sun altitude
Rises 17:22:18 0° 242° (WSW) 4,127 15.0 -1.6°
Reaches altitude 10° 17:24:32 10° 239° (WSW) 3,442 12.5 -2.0°
Maximum altitude 17:33:36 69° 158° (SSE) 2,222 9.4 -3.7°
Drops below altitude 10° 17:51:55 10° 80° (E) 6,487 11.1 -7.1°
Enters shadow 17:54:05 - 79° (E) 7,016 11.3 -7.5°
